Regional Weather Roundup
Issued by NWS Wakefield, VA

Home | Current Version | Previous Version | Graphics & Text | Print | Product List | Glossary On
Versions: 1 2 3 4 5 6 7 8 9 10 11 12 13 14 15 16 17 18 19 20 21 22 23 24 25 26 27 28 29 30 31 32 33 34 35 36 37 38 39 40 41 42 43 44 45 46 47 48 49
000
ASUS41 KAKQ 071815
RWRAKQ

REGIONAL WEATHER ROUNDUP
NATIONAL WEATHER SERVICE WAKEFIELD VA
100 PM EST SUN FEB 07 2016

Note: "fair" indicates few or no clouds below 12,000 feet with no
significant weather and/or obstructions to visibility. * = Denotes
station may not report precipitation (e.g., rain,snow,etc.),
thunder or fog.

VAZ042-051-052>054-056-071900-
NORTHERN VIRGINIA

CITY           SKY/WX    TMP DP  RH WIND       PRES   REMARKS
WASH NATIONAL  CLOUDY    45  27  49 NE8       30.10F
DULLES         CLOUDY    42  21  43 N8        30.09F
FORT BELVOIR   FAIR      46  17  32 VRB2      30.10F
QUANTICO       FAIR      44  27  51 NE3       30.12F
FREDERICKSBRG* FAIR      45  22  40 NE7       30.09S
STAFFORD*      FAIR      44  17  33 NE6       30.13S
WARRENTON      FAIR      46  26  45 N6        30.09S
CULPEPER*      FAIR      44  22  42 N7        30.11S
MANASSAS*      SUNNY     43  23  45 NE8       30.10F
LEESBURG*      FAIR      43  30  61 N6        30.09F
WINCHESTER     FAIR      43  23  45 NE3       30.08F
FRONT ROYAL*   FAIR      39  25  56 CALM      30.07F
LURAY*         FAIR      36  27  69 CALM      30.08F
$$

VAZ048-049-060>072-079>083-071900-
CENTRAL AND SOUTH CENTRAL VIRGINIA

CITY           SKY/WX    TMP DP  RH WIND       PRES   REMARKS
RICHMOND       CLOUDY    42  25  50 N12       30.03F
CHESTERFIELD*  FAIR     N/A N/A N/A NE8       30.05F
PETERSBURG*    FAIR      44  19  36 NE10      30.03F
HANOVER        FAIR      43  23  45 VRB5      30.06F
TAPPAHANNOCK*  FAIR      44  23  43 NE7       30.08F
QUINTON*       FAIR      42  24  48 NE9       30.03F
CHARLOTTSVILLE FAIR      44  23  43 NE5       30.07F
GORDONSVILLE*  FAIR      44  24  46 NE9       30.07F
ORANGE*        FAIR      45  23  42 N8        30.10S
LOUISA*        FAIR      45  19  36 NE9       30.06S
BUMPASS*       FAIR      44  20  37 NE3       30.08S
FARMVILLE*     FAIR      45  22  41 N9G16     30.04F
CREWE*         FAIR      41  23  47 NE6       30.03F
FORT PICKETT*  FAIR      41  22  46 N9G16     30.02F
CHASE CITY*    FAIR      41  20  41 N8        30.02F
CLARKSVILLE*   CLOUDY    41  23  48 N8        30.02F
SOUTH HILL*    CLOUDY    40  23  50 N10G16    30.06F
LAWRENCEVILLE* CLOUDY    41  23  50 N3        30.00F
EMPORIA*       CLOUDY    37  27  65 NW13      30.00F
$$

VAZ088>098-071900-
SOUTHEAST VIRGINIA

CITY           SKY/WX    TMP DP  RH WIND       PRES   REMARKS
NORFOLK        PTSUNNY   42  29  59 N21G31    29.93F
VIRGINIA BEACH CLOUDY    46  33  60 N24G32    29.90F
NORFOLK NAVAL  CLOUDY    42  26  53 N21G29    29.95F
WEST POINT*    FAIR      42  24  50 N8        30.05F
SALUDA*        FAIR      39  27  60 N8G16     30.03F
NEWPORT NEWS   FAIR      41  28  60 NE12G25   29.98F
LANGLEY AFB    FAIR      40  29  64 NE20G25   29.95F
FORT EUSTIS    FAIR      41  23  48 NE9G18    29.97F
WILLIAMSBURG*  FAIR      45  30  57 NE6G16    30.00F
HR EXEC AP*    FAIR      43  25  49 NE14G22   29.96F
FRANKLIN*      CLOUDY    40  29  65 N9G17     29.97F
US460-WAKEFLD  FAIR      41  24  51 VRB7      29.99F
$$

VAZ020-022-025-037-045-071900-
WEST CENTRAL AND SOUTHWEST VIRGINIA

CITY           SKY/WX    TMP DP  RH WIND       PRES   REMARKS
STAUNTON*      FAIR      40  27  57 CALM      30.08F
WAYNESBORO*    FAIR      37  22  53 CALM      30.06F
HOT SPRINGS VA FAIR      35  21  56 CALM      29.96S
LYNCHBURG      FAIR      42  21  43 N12       30.06F
DANVILLE       FAIR      44  21  40 NE10      30.05F
SOUTH BOSTON*  FAIR      42  21  44 NE6       30.04F
MARTINSVILLE   FAIR      42  20  41 N6        30.08S
ROANOKE        CLOUDY    41  22  46 CALM      30.08F
BLACKSBURG     FAIR      41  25  53 CALM      30.06S
DUBLIN*        FAIR      43  24  46 N8        30.05F
MARION*        FAIR      46  22  38 W8        30.04F
HILLSVILLE*    FAIR      39  23  53 N9        30.00S
RICHLANDS*     FAIR      43  21  41 N5        30.03F
WISE*          FAIR      45  14  29 N5        30.07F
ABINGDON*      FAIR      47  22  37 W10G16    30.06F
$$

MDZ021>025-VAZ099-100-071900-
SOUTHERN MARYLAND AND THE DELMARVA PENINSULA

CITY           SKY/WX    TMP DP  RH WIND       PRES   REMARKS
PATUXENT RIVER CLOUDY    41  29  62 N9        30.09F
BAY BRIDGE APT   N/A     37  30  75 CALM      30.11F
LEONARDTOWN    CLOUDY    39  27  60 NE3       30.12S
DOVER          CLOUDY    43  28  56 NE8       30.09F
GEORGETOWN     PTSUNNY   42  28  57 NE9       30.09F
EASTON         CLOUDY    43  28  56 E12       30.13F
CAMBRIDGE      CLOUDY    43  27  52 NE6       30.09F
SALISBURY      MOSUNNY   42  27  55 NE10      30.08F
OCEAN CITY     CLOUDY    41  31  67 NE13G18   30.07F
WALLOPS ISLAND FAIR      42  30  62 NE15G23   30.04F
ACCOMACK*      FAIR      41  28  60 NE14G20   30.03F
$$

NCZ012>017-030>032-071900-
NORTH CENTRAL AND EASTERN NORTH CAROLINA

CITY           SKY/WX    TMP DP  RH WIND       PRES   REMARKS
ROANOKE RAPIDS FAIR      37  27  65 N10G17    29.98F
RALEIGH        CLOUDY    41  22  46 NE12      30.00F
ELIZABETH CITY LGT RAIN  44  35  70 N28G38    29.86F
AHOSKIE*       CLOUDY    39  28  63 N13G18    29.96F
EDENTON*       LGT RAIN  42  36  79 N15G23    29.88F
CURRITUCK*     CLOUDY    44  36  73 N18G30    29.89F
KILL DEVIL HLS LGT RAIN  46  41  83 N16G24    29.79F
MANTEO         RAIN      46  42  88 NE25G32   29.80F
CAPE HATTERAS  RAIN      47  46  97 NE15G29   29.73F
TARBORO*       LGT RAIN  38  30  73 N10G17    29.96F
GOLDSBORO      CLOUDY    36  36 100 N14G23    29.89F
WASHINGTON     LGT RAIN  37  32  84 N12G21    29.88F
GREENVILLE     LGT RAIN  36  34  93 N10G17    29.95F
NEW BERN       RAIN      38  34  85 N20G28    29.83F FOG
WILMINGTON     HVY RAIN  36  31  82 N22G31    29.78F WCI  25
$$

VAZ048-071900-
ELSEWHERE

CITY           SKY/WX    TMP DP  RH WIND       PRES   REMARKS
HARRISBURG PA  PTSUNNY   41  24  51 CALM      30.10F
BALTIMORE      CLOUDY    44  20  38 NE7       30.09F
ANNAPOLIS      CLOUDY    41  24  51 N7        30.10F
ANDREWS AFB    FAIR      43  21  42 NE9       30.09F
PHILADELPHIA   CLOUDY    45  23  42 E5        30.12F
HENDERSON NC   PTSUNNY   41  19  41 N7G16     29.99F
GREENSBORO     CLOUDY    44  19  36 NE12G20   30.02F
ROCKY MOUNT    MIX PCPN  37  29  72 N10       29.98F
$$

VAZ100-071900-
MARINE

STATION/POSITION TIME  TEMP    WIND        PRES    WAVE   SWELL
                       AIR SEA DIR/SP/G            HT/PER HT/PER
                 (UTC) (F)     (DEG/KT/KT) (MB)    (FT/S) (FT/S)
BRANDYWINE LGT   1700   38      70/  7/  8 1020.2F
CAPE MAY NJ      1700   41 42   50/  6/  7 1020.0F
LEWES DE         1700   39 41   60/  8/  8 1020.5F
15NM E FENWICK I 1750   42 45              1018.3F   3/10
OCEAN-CITY-INLET 1700   40 41   40/  6/ 12 1019.6F
WACHAPREAGUE VA  1700   40 42   20/ 14/ 19 1018.2F
THOMAS POINT MD  1700   36      30/ 12     1020.6F
GOOSES REEF MD   1800   39 40   10/  8/ 10 1020.2F   1/ 2
COVE POINT MD    1700   37      20/  7/ 10 1020.7F
SOLOMONS ISLAND  1700   40 41   10/  9/ 12   N/A
BISHOPS HEAD MD  1700   41 40   50/  7/ 10 1019.2F
POTOMAC MD       1800   40 41   40/  8/ 12 1017.3F   0
CAMBRIDGE MD     1700   42 40   30/  8/  9 1019.2F
LEWISETTA VA     1700   41 43   60/  6/ 10 1019.3F
RAPPAHANNOCK LGT 1700           20/ 20/ 22 1018.4F
STINGRAY PT      1800   40 42   30/ 17/ 21 1016.2F   2/ 3
YORK RVR RNG VA  1700   40      40/ 20/ 24 1017.2F
YORKTOWN VA      1700   41 43   40/ 17/ 21 1017.9F
JAMESTOWN VA     1800   40 44   10/  8/ 14   N/A
DOMINION TERM VA 1700   41      30/  6/ 14 1017.8F
KIPTOPEKE VA     1700      43   30/  8/ 16   N/A
CHES BAY BRIDGE  1700   41 43   10/ 19/ 23 1016.7F
CAPE HENRY VA    1700   41      30/ 23/ 26   N/A
CHESAPEAKE LGHT  1700   43      30/ 25/ 31 1016.2F
WILLOUBY STN VA  1700   40      20/ 21/ 24 1027.5S
CAPE HENRY BUOY  1728      46                N/A     6/ 6   2/11
1ST LANDING BUOY 1800      44                N/A     3/ 4
CAPE CHARLES BUO 1726      44                N/A     6/ 5   3/10
OFFSHORE WE BUOY 1721      49                N/A     7/ 6   3/11
64NM E OF VA BCH 1750   52 53   40/ 29/ 33 1010.1F   9/ 6   3/10
DUCK PIER NC     1700   45 44   20/ 25/ 31 1012.8F
44100 DUCK FRF   1724      47                N/A     8/ 7   2/11
44056 DUCK FRF   1711      44                N/A     8/ 7   2/11
OREGON INLET NC  1700   46 45   10/ 22/ 29 1011.0F
HATTERAS NC      1700   47 47   20/ 28/ 39 1007.7F
DIAMOND SHLS NC  1750   57 70   30/ 35/ 41 1003.7F  12/ 8   2/13
$$



USA.gov is the U.S. government's official web portal to all federal, state and local government web resources and services.